Weather Service Report


169 
ASUS43 KIND 051909
RWRIN 

WEATHER ROUNDUP FOR INDIANA
NATIONAL WEATHER SERVICE INDIANAPOLIS IN
200 PM EST THU MAR 05 2015

NOTE: "FAIR" INDICATES FEW OR NO CLOUDS BELOW 12,000 FEET WITH NO
SIGNIFICANT WEATHER AND/OR OBSTRUCTIONS TO VISIBILITY.

* - STATION DOES NOT REPORT WEATHER SUCH AS PRECIPITATION OR FOG.

+ - STATION NOT QUALITY CONTROLLED BY THE NATIONAL WEATHER SERVICE.
    USE DATA WITH CAUTION...ESPECIALLY DEWPOINT AND RELATIVE
    HUMIDITY OBSERVATIONS.

INZ001>003-010>013-019-020-052000-
NORTHWEST INDIANA
  
CITY           SKY/WX    TMP DP  RH WIND       PRES   REMARKS
GARY /AIRPORT/ SUNNY     21  -6  30 W14       30.47F WCI   8          
KNOX *+          N/A     19   0  42 NW14      30.44S WCI   6          
MONTICELLO +   CLOUDY    20   9  63 W8        30.45S WCI  10          
VALPARAISO     NOT AVBL                                               

$$

LMZ046-743>745-052000-
SOUTHERN LAKE MICHIGAN
  
STATION/POSITION TIME  TEMP WIND        PRES
                       AIR  DIR/SP/G
                 (UTC) (F)  (DEG/KT/KT) (MB)
MICHIGAN CITY    1800   18  270/ 16/ 19   N/A

$$

INZ004-005-014>016-021>024-052000-
NORTH CENTRAL INDIANA
  
CITY           SKY/WX    TMP DP  RH WIND       PRES   REMARKS
ELKHART        CLOUDY    19   1  45 NW7       30.42F WCI  10          
GOSHEN         CLOUDY    18   6  59 VRB5      30.41S WCI  11          
PERU/GRISSOM   CLOUDY    20   6  55 W10       30.41S WCI   8          
SOUTH BEND     FLURRIES  19  11  70 NW23      30.43S WCI   2          
WARSAW +       PTSUNNY   19   5  53 NW3       30.41F                  

$$

INZ006>009-017-018-025>027-052000-
NORTHEAST INDIANA
  
CITY           SKY/WX    TMP DP  RH WIND       PRES   REMARKS
ANGOLA *+      MOSUNNY   18   1  49 W7        30.38F WCI   8          
FORT WAYNE     PTSUNNY   19   4  51 NW14G21   30.41S WCI   6          

$$

INZ028-029-035-036-043>045-051>053-052000-
WEST CENTRAL INDIANA
  
CITY           SKY/WX    TMP DP  RH WIND       PRES   REMARKS
CRAWFORDSVL +  PTSUNNY   18   3  51 W10       30.46R WCI   7          
GREENCASTLE +  MOSUNNY   21   3  45 N8        30.45R WCI  12          
LAFAYETTE      MOSUNNY   17   7  64 W12       30.47S WCI   4          
TERRE HAUTE    MOSUNNY   20   7  57 NW12G20   30.48S WCI   8          

$$

INZ030>032-037>040-046>048-054>057-064-065-052000-
CENTRAL INDIANA
  
CITY           SKY/WX    TMP DP  RH WIND       PRES   REMARKS
CP ATTERBURY + CLOUDY    27   9  46 NW13      30.42F WCI  16          
COLUMBUS       MOSUNNY   23   7  50 N9        30.43R WCI  13          
FRANKFORT +    MOSUNNY   21   8  59 W7        30.46R WCI  12          
GREENWOOD *+   PTSUNNY   21   3  45 NW5       30.41S WCI  15          
INDIANAPOLIS   PTSUNNY   21   6  52 NW10      30.41S WCI  10          
-EAGLE CREEK   MOSUNNY   21   7  54 N13       30.43R WCI   9          
KOKOMO *+      MOSUNNY   21   9  58 NW13      30.43R WCI   9          
MT COMFORT *+  MOSUNNY   25   0  33 N8        30.42S WCI  16          
SHELBYVILLE    CLOUDY    25   9  50 N9        30.41S WCI  15          
ZIONSVILLE +   PTSUNNY   20   6  54 NW7       30.43S WCI  11          

$$

INZ033-034-041-042-049-050-058-059-052000-
EAST CENTRAL INDIANA
  
CITY           SKY/WX    TMP DP  RH WIND       PRES   REMARKS
MUNCIE         MOSUNNY   20   5  52 NW9       30.40S WCI   9          

$$

INZ060-061-067>069-081>083-085>088-052000-
SOUTHWEST INDIANA
  
CITY           SKY/WX    TMP DP  RH WIND       PRES   REMARKS
EVANSVILLE     SUNNY     23   5  46 NW18G26   30.50S WCI   9          
HUNTINGBURG *+ SUNNY     23   9  54 N15       30.47S WCI  10          

$$

INZ062-063-066-070>080-084-089>092-052000-
SOUTH CENTRAL AND SOUTHEAST INDIANA
  
CITY           SKY/WX    TMP DP  RH WIND       PRES   REMARKS
BEDFORD +      SUNNY     27   5  39 SW6       30.42S WCI  20          
BLOOMINGTON    PTSUNNY   24   8  50 VRB5      30.41F WCI  18          
NORTH VERNON + MOSUNNY   25   9  50 NW9       30.41R WCI  15          
SEYMOUR +      MOSUNNY   27  10  50 NE6       30.42S WCI  20          

$$


Return to Home page


Western Regional Climate Center, wrcc@dri.edu